Regional Weather Roundup
Issued by NWS

Home | Current Version | Previous Version | Graphics & Text | Print | Product List | Glossary On
Versions: 1 2 3 4 5 6 7 8 9 10 11 12 13 14 15 16 17 18 19 20 21 22 23 24 25 26 27 28 29 30 31 32 33 34 35 36 37 38 39 40 41 42 43 44 45 46 47 48 49 50
000
ASUS45 KSLC 051910
RWRUT

UTAH REGIONAL WEATHER ROUNDUP
NATIONAL WEATHER SERVICE SALT LAKE CITY UT
100 PM MDT SUN JUL 05 2015

UTZ001>011-023>025-052000-

NORTHERN UTAH

CITY           SKY/WX    TMP DP  RH WIND       PRES   REMARKS
BRIGHAM CITY   PTSUNNY   74  61  61 CALM      30.06F
HILL AFB       PTSUNNY   77  59  53 VRB6      30.08F
LOGAN          CLOUDY    70  63  78 N6        30.09S
OGDEN          PTSUNNY   79  57  46 W7        30.06S
PROVO AIRPORT  PTSUNNY   75  59  57 CALM      30.08F
SALT LAKE CITY MOSUNNY   79  61  53 VRB6      30.04F
VERNAL         CLOUDY    76  55  48 SE9       30.11F
WENDOVER       PTSUNNY   86  52  30 S7        30.02F
HEBER CITY     CLOUDY    70  59  68 CALM      30.16S
WEST JORDAN    SUNNY     79  55  44 SE6       30.07F

$$

UTZ012>022-026-027-052000-

SOUTHERN/CENTRAL UTAH

CITY           SKY/WX    TMP DP  RH WIND       PRES   REMARKS
BLANDING       MOSUNNY   76  60  57 S8        30.24F
BRYCE CANYON   PTSUNNY   77  44  30 NW14G20   30.29F
CEDAR CITY     TSTM      75  51  43 S8G25     30.14S
DELTA          SUNNY     87  45  23 SW8       30.05F
HANKSVILLE     MOSUNNY   79  61  53 S5        30.08F
MILFORD        PTSUNNY   88  40  18 SW8       30.06F
MOAB/CYNLANDS  PTSUNNY   79  60  52 VRB3      30.07F
PRICE          LGT RAIN  71  57  61 CALM      30.16F
ST GEORGE      CLOUDY    97  50  20 NW7       29.96F HX  94
KANAB          MOSUNNY   91  46  21 W14G21    30.14F

$$

REGIONAL REPORTS     COLORADO/ARIZONA

CITY           SKY/WX    TMP DP  RH WIND       PRES   REMARKS
CRAIG, CO      LGT RAIN  66  57  72 W13       30.19R
GRAND JUNCTION CLOUDY    73  59  61 N6        30.10F
RIFLE          LGT RAIN  68  59  73 W9        30.15R
MONTROSE       CLOUDY    73  60  63 NE5       30.17F
CORTEZ         SUNNY     79  54  41 S6        30.18F
PAGE, AZ       MOSUNNY   93  46  19 NW10G17   30.02F
GRAND CANYON   LGT RAIN  73  54  51 VRB3      30.27R
KINGMAN        MOSUNNY   96  49  20 SW18G25   30.03F HX  93
FLAGSTAFF      PTSUNNY   72  49  44 W10       30.30F

$$

REGIONAL REPORTS    NEVADA/IDAHO/WYOMING

CITY           SKY/WX    TMP DP  RH WIND       PRES   REMARKS
LAS VEGAS, NV  PTSUNNY   99  46  16 S9        29.85F HX  95
ELY            MOSUNNY   84  34  16 W15G22    30.17F
ELKO           PTSUNNY   77  52  41 SW12      30.12S
POCATELLO, ID  PTSUNNY   78  49  35 S12       30.05S
BURLEY         CLOUDY    75  58  55 SW10      30.01S
EVANSTON, WY   CLOUDY    59  56  89 S7        30.24S
ROCK SPRINGS   LGT RAIN  65  53  65 W8        30.20R
KEMMERER       LGT RAIN  59  54  82 NW5       30.25R

$$


USA.gov is the U.S. government's official web portal to all federal, state and local government web resources and services.